Location: Grust
(42.8833°N, 0.0333°W)
Time: 14:46:29
(UTC+00:00)

USA 307 - Pass Details

Date: 25 October 2020
Orbit: 569 x 579 km, 54.0° (Epoch: 23 November)

Event Time Altitude Azimuth Distance (km) Brightness Sun altitude
Rises 18:28:31 0° 308° (NW) 2,788 7.3 -16.5°
Reaches altitude 10° 18:31:08 10° 322° (NW) 1,886 6.0 -17.0°
Maximum altitude 18:34:39 24° 17° (NNE) 1,206 4.4 -17.6°
Enters shadow 18:35:30 23° 36° (NE) 1,254 4.3 -17.8°
